Location: Carri�res
(48.9069°N, 2.1792°E)
Time: 04:16:31
(UTC+00:00)

Cosmos 1315 Rocket - Pass Details

Date: 17 January 2021
Orbit: 529 x 567 km, 81.2° (Epoch: 26 February)

Event Time Altitude Azimuth Distance (km) Brightness Sun altitude
Rises 18:03:03 0° 345° (NNW) 2,694 6.4 -15.6°
Reaches altitude 10° 18:05:13 10° 341° (NNW) 1,802 5.5 -16.0°
Maximum altitude 18:09:07 60° 262° (W) 625 3.4 -16.6°
Drops below altitude 10° 18:13:02 10° 183° (S) 1,807 5.6 -17.2°
Sets 18:15:13 0° 179° (S) 2,701 6.5 -17.6°
